الصفحة الرئيسية
METAR-TAF:

METAR-TAF

مطار :

جبل طارق, جبل طارق

مطار جبل طارق

دائرة عرض: 36-09N, خط طول: 005-21W, ارتفاع: 5 متر

مراقبة الطقس الحالي

تاريخ ووقت الإصدار 47 دقيقة قبل الساعة 20:50UTC
ريح 10 عقدة من الشرق/الشمال الشرقي
درجة الحرارة 15°درجة مئوية
الرطوبة 77%
ضغط 1019 hPa
الرؤية 10 كم أو أكثر
غيوم قليلة على ارتفاع 1200 قدم
غيوم مفككة على ارتفاع 1900 قدم

METAR: LXGB 182050Z 07010KT 9999 FEW012 BKN019 15/11 Q1019

زمن: 22:37 (21:37 UTC)

توقعات

تاريخ ووقت الإصدار 4ساعات و 44 دقيقة قبل الساعة 16:53UTC
التوقعات صالحة من18 الساعة 18 UTC إلى 18 الساعة 22 UTC
ريح 10 عقدة من الشرق/الشمال الشرقي
الرؤية 10 كم أو أكثر
غيوم قليلة على ارتفاع 1000 قدم
غيوم متفرقة على ارتفاع 2500 قدم
نظرية الاحتمالات 40% :
مؤقت
من 18 الساعة 18 UTC إلى 18 الساعة 22 UTC
الرؤية: 7000 متر
غيوم متفرقة على ارتفاع 1000 قدم
العجاج

TAF: LXGB 181653Z 1818/1822 07010KT 9999 FEW010 SCT025 PROB40 TEMPO 1818/1822 7000 HZ SCT010

أرصاد الطقس والتوقعات من أكثر من 4000 مطار (تقارير الطقس للمطار METAR والتنبؤ بالطقس بالمطارTAF).

المحطات المتاحة هي النقط الصفراء والحمراء على الخريطة.

حرك المؤشر فوق النقطة لمعرفة اسم المحطة.

ثم انقر لمعرفة أرصاد وتوقعات الطقس.

لتغيير الخارطة: اضغط على الأزرار الخضراء مع رمز الصليب الأسود للتكبير. على الزر الأخضر مع شرطة للتصغير، أو على الأسهم الخضراء للخرائط المجاورة.


METAR-TAF: